Flag for Australia

Past Weather in Leeton, New South Wales, Australia — Yesterday and Last 2 Weeks

Now
42 °F

Quite cool.


Feels Like: 35 °F
Forecast: 57 / 39 °F
Wind: 13 mph from Northwest

Location: Narrandera Airport
Current Time: Sep 26, 2020 at 12:27:37 am
Latest Report: Sep 25, 2020 at 11:00 pm
Visibility: N/A
Pressure29.84 "Hg
Humidity: 86%
Dew Point: 38 °F
Location of LeetonLocation

Past Weather in Leeton — Graph

°F

Leeton Temperature Yesterday

Maximum temperature yesterday: 52 °F (at 10:00 am)
Minimum temperature yesterday: 43 °F (at 7:00 pm)
Average temperature yesterday: 47 °F

High & Low Weather Summary for the Past Weeks

 TemperatureHumidityPressure
High83 °F (Sep 17, 1:00 pm)100% (Sep 14, 7:00 am)30.46 "Hg (Sep 14, 7:00 am)
Low35 °F (Sep 15, 6:00 am)23% (Sep 16, 3:00 pm)29.64 "Hg (Sep 25, 2:00 pm)
Average57 °F71%30.09 "Hg
* Reported Sep 10 10:00 pm — Sep 25 10:00 pm, Leeton. Weather by CustomWeather, © 2020

Note: Actual official high and low records may vary slightly from our data, if they occured in-between our weather recording intervals... More about our weather records

Leeton Weather History for the Previous 24 Hours

Scroll right to see more
 ConditionsComfort  
Time TempWeatherWind HumidityBarometerVisibility
10:00 pm
Fri, Sep 25
43 °FQuite cool.12 mph80%29.82 "HgN/A
9:00 pm45 °FPassing clouds.15 mph75%29.80 "HgN/A
8:00 pm45 °FCool.15 mph78%29.79 "HgN/A
7:00 pm43 °FQuite cool.10 mph82%29.74 "HgN/A
6:00 pm44 °FPartly sunny.14 mph79%29.72 "HgN/A
5:00 pm46 °FCool.9 mph76%29.69 "HgN/A
4:00 pm46 °FCool.14 mph76%29.67 "HgN/A
3:00 pm51 °FOvercast.16 mph79%29.64 "HgN/A
2:00 pm48 °FCool.10 mph88%29.64 "HgN/A
1:00 pm47 °FCool.12 mph92%29.66 "HgN/A
12:00 pm47 °FPartly sunny.10 mph91%29.66 "HgN/A
11:00 am46 °FCool.14 mph95%29.68 "HgN/A
10:00 am52 °FCool.14 mph76%29.66 "HgN/A
9:00 am51 °FOvercast.15 mph80%29.68 "HgN/A
8:00 am49 °FCool.16 mph85%29.69 "HgN/A
7:00 am47 °FCool.12 mph93%29.67 "HgN/A
6:00 am47 °FOvercast.13 mph93%29.71 "HgN/A
5:00 am50 °FCool.9 mph78%29.69 "HgN/A
4:00 am49 °FCool.12 mph78%29.67 "HgN/A
3:00 am49 °FRain showers. Overcast.7 mph84%29.71 "HgN/A
2:00 am47 °FCool.8 mph86%29.76 "HgN/A
1:00 am49 °FCool.6 mph79%29.80 "HgN/A
12:00 am48 °FOvercast.6 mph77%29.83 "HgN/A
Weather by CustomWeather, © 2020

See weather overview